Location: Normandy Village
(37.8755°N, 122.2655°W)
Time: 14:39:48
(UTC+00:00)

BREEZE-M DEB (TANK) - Pass Details

Date: 22 September 2019
Orbit: 300 x 13967 km, 46.1° (Epoch: 21 October)

Event Time Altitude Azimuth Distance (km) Brightness Sun altitude
Exits shadow 12:56:49 - 287° (WNW) 4,437 6.4 -12.6°
Reaches altitude 10° 12:57:16 10° 288° (WNW) 4,242 6.3 -12.5°
Maximum altitude 13:04:59 33° 350° (N) 1,240 4.1 -11.0°
Drops below altitude 10° 13:07:59 10° 59° (ENE) 1,621 5.9 -10.4°
Sets 13:09:30 0° 72° (ENE) 2,234 7.5 -10.1°
